[[{"header":{"parameterUnit":"m.s-1","parameterCategory":1,"la1":30.2991,"la2":30.254,"lo1":-89.0895,"lo2":-89.0444,"dy":0.0017,"dx":0.0017,"nx":28,"ny":28,"refTime":"2025-11-12T03:00:00:Z","depth":0,"parameterNumber":2,"parameterNumberName":"U-component_of_WINDS"},"data":[0,0,0,0,0,0,0,0,0,0,0,0,0,0,0,0,0,0,0,0,0,0,0,0,0,0,0,0,0,0,0,0,0,0,0,0,0,0,0,0,0,0,0,0,0,0,0,0,0,0,0,0,0,0,0,0,0,0,0.7318,0.7318,0,0.7314,0.7314,0.7314,0.7267,0.7266,0.7265,0.7263,0.726,0.7261,0.7262,0,0,0,0,0,0,0,0,0,0,0,0,0,0.7284,0.7285,0.7318,0.7318,0.7318,0.7314,0.7314,0.7314,0.7267,0.7266,0.7264,0.7263,0.726,0.7261,0.7262,0,0,0,0,0,0,0,0,0,0,0,0,0,0.7291,0.7285,0.7318,0.7294,0.7292,0.7314,0.7314,0.7314,0.7267,0.7266,0.7264,0.7262,0.7259,0.7261,0.7262,0.7307,0,0,0.7267,0.7268,0,0,0,0,0,0,0,0,0.7291,0.7293,0.7298,0.7296,0.7293,0.7289,0.7301,0.7312,0.7268,0.7277,0.7263,0.7261,0.7271,0.7272,0.7275,0.7307,0.7307,0.7267,0.7268,0.7269,0.7269,0,0,0,0,0,0,0,0.7291,0.7293,0.7317,0.7298,0.7295,0.7283,0.7282,0.7303,0.7284,0.7276,0.7272,0.7273,0.727,0.7274,0.7274,0.7307,0.7267,0.7268,0.7269,0.727,0.7374,0.7375,0,0,0,0,0,0,0.7293,0.7293,0.7317,0.7317,0.7288,0.7285,0.7284,0.7292,0.7284,0.7281,0.7274,0.727,0.7272,0.7273,0.7274,0.7325,0.7269,0.727,0.7271,0.7372,0.7374,0.7376,0,0,0,0,0,0,0.7293,0.7296,0.7317,0.7304,0.7305,0.7288,0.7297,0.7293,0.7297,0.7282,0.7279,0.7282,0.727,0.7272,0.7299,0.7324,0.7271,0.7272,0.737,0.7372,0.7375,0.7427,0,0,0,0,0,0,0.7292,0.7296,0.7314,0.7304,0.7306,0.7342,0.7299,0.7295,0.73,0.7295,0.7288,0.7286,0.7269,0.7297,0.73,0.7325,0.7273,0.7367,0.7371,0.7374,0.7423,0.7432,0.7439,0,0,0,0,0,0.7291,0.7329,0.7315,0.7318,0.7328,0.7344,0.7345,0.7325,0.7302,0.7319,0.7309,0.7286,0.7321,0.73,0.7304,0.7329,0.7366,0.737,0.7374,0.742,0.743,0.7438,0,0,0,0,0,0,0.7343,0.7328,0.7311,0.7348,0.7347,0.7336,0.7357,0.7337,0.7343,0.7338,0.7313,0.7312,0.7343,0.7339,0.7316,0.7371,0.7339,0.7344,0.7373,0.7382,0.739,0.739,0.7275,0,0,0,0,0,0.7359,0.7373,0.7359,0.7392,0.7393,0.7375,0.7381,0.7366,0.7364,0.7364,0.7356,0.7356,0.7366,0.7374,0.7383,0.7422,0.7419,0.7442,0.7449,0.7456,0.746,0.7478,0.7488,0.739,0.739,0.7389,0,0,0.7391,0.7384,0.7395,0.7402,0.74,0.7415,0.7375,0.7393,0.7404,0.7367,0.7391,0.7386,0.7383,0.7416,0.743,0.7414,0.7486,0.7461,0.7466,0.7467,0.7484,0.7493,0.7501,0.7392,0.7392,0.7391,0,0,0.7458,0.7455,0.7481,0.7479,0.7476,0.7463,0.747,0.7461,0.7455,0.7479,0.7451,0.7463,0.7483,0.7481,0.7483,0.7547,0.7525,0.7551,0.7591,0.7609,0.7616,0.7623,0.7644,0.7653,0.7555,0.7555,0.7555,0,0.7499,0.752,0.7497,0.7517,0.752,0.7486,0.7512,0.7511,0.7511,0.7514,0.7496,0.7517,0.7514,0.7545,0.756,0.7563,0.7569,0.7551,0.7617,0.7624,0.763,0.765,0.7658,0.7558,0.7558,0.7558,0.7557,0,0.757,0.7585,0.7607,0.7606,0.7612,0.7635,0.7614,0.7623,0.7606,0.7595,0.7619,0.7613,0.7619,0.7626,0.761,0.7654,0.7643,0.7622,0.7589,0.7642,0.7661,0.7668,0.7563,0.7562,0.7561,0.756,0,0,0.767,0.7655,0.7664,0.7662,0.7655,0.7666,0.7686,0.7691,0.7698,0.7699,0.7715,0.7731,0.771,0.7712,0.7696,0.7712,0.7761,0.7688,0.7687,0.77,0.7806,0.7822,0.7832,0.7746,0.7747,0.7749,0.7806,0,0.7733,0.7767,0.7746,0.7782,0.7795,0.7762,0.7779,0.7776,0.7766,0.7775,0.7764,0.7775,0.7747,0.7748,0.7763,0.7752,0.7781,0.7747,0.776,0.776,0.7761,0.7841,0.7859,0.7913,0.7813,0.7814,0.7815,0,0.7812,0.7814,0.7852,0.784,0.7844,0.7861,0.7862,0.7872,0.7867,0.7859,0.786,0.7839,0.7857,0.7825,0.7849,0.7826,0.783,0.7825,0.7826,0.7826,0.7791,0.7843,0.7931,0.7939,0.7827,0.7826,0.7825,0,0.7879,0.7892,0.7916,0.7916,0.7903,0.7915,0.791,0.7903,0.7907,0.7909,0.7911,0.7915,0.7917,0.7921,0.7901,0.788,0.7927,0.7894,0.792,0.7921,0.7931,0.7931,0.802,0.7935,0.7935,0.7935,0.7935,0,0.7952,0.7976,0.7946,0.796,0.7985,0.7961,0.7986,0.7978,0.7972,0.7984,0.7956,0.7967,0.7941,0.795,0.7935,0.7956,0.7958,0.7951,0.7946,0.7953,0.7953,0.7954,0.795,0.7937,0.7937,0.7936,0.7936,0,0.8032,0.8013,0.8036,0.8021,0.8018,0.8037,0.8024,0.8036,0.8023,0.8039,0.8041,0.8021,0.8029,0.801,0.8017,0.8006,0.8036,0.8026,0.8037,0.8034,0.8061,0.8058,0.8154,0.8164,0.8073,0.8074,0.8075,0,0.8079,0.8096,0.8082,0.8087,0.8084,0.8093,0.8096,0.8072,0.8077,0.8071,0.8084,0.809,0.8093,0.8108,0.8095,0.8099,0.8088,0.8121,0.8089,0.8094,0.8087,0.8086,0.8087,0.8128,0.8129,0.813,0.8131,0,0.8163,0.8152,0.8158,0.816,0.8164,0.8164,0.8163,0.8169,0.8143,0.8149,0.8157,0.8159,0.8165,0.8171,0.8171,0.8166,0.8144,0.8141,0.8147,0.8153,0.8159,0.8155,0.8055,0.8139,0.8138,0.8137,0.8137,0.8137,0.8227,0.824,0.8232,0.8238,0.8234,0.8233,0.8243,0.8231,0.8237,0.8239,0.8224,0.8235,0.8228,0.8226,0.8223,0.823,0.8215,0.8224,0.8227,0.8229,0.8233,0.8158,0.823,0.823,0.823,0.823,0.8229,0,0.8309,0.8302,0.8308,0.8306,0.8311,0.8288,0.8285,0.829,0.83,0.8295,0.8298,0.8306,0.8311,0.8297,0.83,0.8309,0.8299,0.831,0.8309,0.8308,0.8247,0.8241,0.8318,0.8318,0.8318,0.8318,0.8318,0.8318,0.8353,0.8373,0.8361,0.8378,0.837,0.838,0.8379,0.8378,0.8373,0.8383,0.8387,0.8377,0.8368,0.837,0.8373,0.8369,0.8371,0.8386,0.8378,0.8321,0.8312,0.8304,0.8298,0.8387,0.8387,0.8438,0.8439,0.8439]},{"header":{"parameterUnit":"m.s-1","parameterCategory":1,"la1":30.2991,"la2":30.254,"lo1":-89.0895,"lo2":-89.0444,"dy":0.0017,"dx":0.0017,"nx":28,"ny":28,"refTime":"2025-11-12T03:00:00:Z","depth":0,"parameterNumber":3,"parameterNumberName":"V-component_of_WINDS"},"data":[0,0,0,0,0,0,0,0,0,0,0,0,0,0,0,0,0,0,0,0,0,0,0,0,0,0,0,0,0,0,0,0,0,0,0,0,0,0,0,0,0,0,0,0,0,0,0,0,0,0,0,0,0,0,0,0,0,0,2.005,2.0049,0,1.9977,1.9976,1.9976,1.9906,1.9905,1.9904,1.9904,1.9827,1.9826,1.9825,0,0,0,0,0,0,0,0,0,0,0,0,0,2.0126,2.0125,2.005,2.0049,2.0048,1.9977,1.9976,1.9975,1.9906,1.9905,1.9904,1.9903,1.9827,1.9826,1.9825,0,0,0,0,0,0,0,0,0,0,0,0,0,2.0077,2.0125,2.005,2.0005,2.0001,1.9978,1.9976,1.9975,1.9907,1.9905,1.9904,1.9903,1.9828,1.9826,1.9824,1.9839,0,0,1.9819,1.9818,0,0,0,0,0,0,0,0,2.008,2.0075,2.0013,2.0009,2.0003,1.995,1.9975,1.993,1.9907,1.9942,1.9904,1.9902,1.9869,1.9863,1.9853,1.9836,1.9832,1.9819,1.9817,1.9817,1.9816,0,0,0,0,0,0,0,2.0084,2.0077,2.0021,2.0012,2.0006,1.9988,1.9979,1.9966,1.9914,1.9939,1.9934,1.9926,1.9866,1.9855,1.985,1.9831,1.9819,1.9817,1.9816,1.9815,1.9819,1.982,0,0,0,0,0,0,2.0094,2.0081,2.0024,2.0019,2.0039,1.9988,1.9978,1.9968,1.9914,1.9904,1.9927,1.9923,1.9858,1.9853,1.9847,1.9859,1.9817,1.9815,1.9814,1.9818,1.9819,1.9821,0,0,0,0,0,0,2.0096,2.009,2.0027,2.0048,2.0039,1.9988,1.9977,1.9967,1.9956,1.9905,1.9895,1.9926,1.9857,1.985,1.9841,1.9855,1.9814,1.9813,1.9817,1.9818,1.982,1.9884,0,0,0,0,0,0,2.0099,2.0091,2.0097,2.0049,2.0038,2.0023,1.9978,1.9967,1.9953,1.9947,1.9901,1.9892,1.9856,1.9844,1.9839,1.9852,1.9811,1.9815,1.9817,1.982,1.988,1.9887,1.9894,0,0,0,0,0,2.0102,2.0118,2.0098,2.0091,2.0045,2.0024,2.0017,1.9976,1.9955,1.9959,1.9926,1.9893,1.9855,1.9844,1.9838,1.985,1.9814,1.9817,1.9819,1.9877,1.9886,1.9894,0,0,0,0,0,0,2.0169,2.0111,2.0088,2.009,2.0062,2.0012,2.0017,1.9987,1.9965,1.996,1.9909,1.9899,1.9895,1.9872,1.9861,1.986,1.983,1.9831,1.9875,1.9884,1.989,1.9895,1.981,0,0,0,0,0,2.0184,2.0173,2.0123,2.0129,2.0116,2.0069,2.0059,2.0029,1.9998,1.9986,1.9952,1.9923,1.9904,1.9893,1.9873,1.9876,1.9864,1.9882,1.9889,1.9894,1.9896,1.9893,1.99,1.983,1.983,1.983,0,0,2.0215,2.0182,2.0178,2.0142,2.0117,2.0105,2.006,2.005,2.004,1.9984,1.9974,1.9948,1.9911,1.9908,1.9905,1.9889,1.9912,1.9898,1.9903,1.9901,1.9897,1.9903,1.9909,1.9832,1.9831,1.9831,0,0,2.0265,2.024,2.0241,2.0217,2.018,2.0149,2.0149,2.0103,2.0084,2.0072,2.0029,2.0016,1.9985,1.996,1.9944,1.9982,1.995,1.9977,2.0012,2.001,2.0016,2.002,2.0032,2.0037,1.9979,1.9979,1.9979,0,2.0308,2.029,2.0246,2.0238,2.0222,2.0171,2.017,2.0149,2.0107,2.0097,2.0079,2.0037,2.0009,1.9998,2.0007,1.9996,1.9993,1.9982,2.0019,2.0023,2.0026,2.0037,2.0041,1.9982,1.9982,1.9982,1.9981,0,2.0343,2.0331,2.0336,2.0297,2.0281,2.0277,2.0231,2.0221,2.0192,2.0162,2.0149,2.0114,2.0084,2.008,2.0052,2.0064,2.0054,2.0029,1.9997,2.0037,2.0046,2.005,1.9987,1.9986,1.9985,1.9984,0,0,2.0434,2.0369,2.0372,2.0352,2.0307,2.0296,2.0288,2.026,2.0251,2.0223,2.0214,2.0188,2.0163,2.0144,2.0113,2.0111,2.0141,2.0085,2.0083,2.0095,2.0149,2.0167,2.0173,2.0119,2.012,2.0121,2.0151,0,2.0475,2.0459,2.0419,2.0415,2.0402,2.0352,2.0345,2.0316,2.0287,2.027,2.0238,2.0219,2.0189,2.0177,2.0173,2.0138,2.0151,2.0135,2.0108,2.0108,2.0118,2.0178,2.0198,2.0228,2.0154,2.0155,2.0155,0,2.052,2.0496,2.0491,2.0444,2.0437,2.0432,2.0401,2.0386,2.0351,2.033,2.0308,2.0273,2.026,2.0231,2.0212,2.0202,2.0188,2.0169,2.0169,2.0164,2.0133,2.0172,2.0238,2.0242,2.0161,2.016,2.016,0,2.0584,2.055,2.0542,2.0527,2.0473,2.047,2.0447,2.0411,2.0395,2.0368,2.0357,2.0329,2.0313,2.0291,2.0248,2.0231,2.0232,2.02,2.0212,2.0213,2.0214,2.0214,2.0276,2.0208,2.0208,2.0208,2.0208,0,2.0633,2.0632,2.057,2.0565,2.0561,2.0513,2.051,2.0483,2.045,2.0437,2.0393,2.0382,2.0327,2.0308,2.0274,2.0262,2.0255,2.0236,2.0227,2.0239,2.0242,2.0229,2.0225,2.0209,2.0209,2.0208,2.0208,0,2.0704,2.0663,2.065,2.06,2.0587,2.0586,2.0542,2.0534,2.0502,2.0486,2.048,2.0429,2.0405,2.036,2.0324,2.0301,2.0294,2.0279,2.0306,2.03,2.0314,2.0312,2.0368,2.0372,2.0304,2.0305,2.0305,0,2.0737,2.0735,2.0684,2.0672,2.0651,2.0634,2.0617,2.057,2.0555,2.0513,2.051,2.0482,2.0458,2.0421,2.038,2.035,2.0333,2.0355,2.0329,2.034,2.0331,2.0331,2.0329,2.0361,2.0362,2.0362,2.0363,0,2.08,2.0779,2.0758,2.073,2.0712,2.0687,2.0659,2.0652,2.0598,2.0583,2.0558,2.0539,2.05,2.0473,2.0437,2.0411,2.0377,2.0372,2.0372,2.0384,2.0399,2.0389,2.0321,2.037,2.037,2.0369,2.0369,2.0369,2.0851,2.0846,2.0809,2.0786,2.076,2.0735,2.0725,2.0691,2.067,2.0636,2.0609,2.0585,2.0547,2.0496,2.0472,2.0451,2.0436,2.0437,2.0437,2.0438,2.0442,2.0404,2.0445,2.0445,2.0444,2.0444,2.0444,0,2.0909,2.0883,2.0863,2.0826,2.0807,2.0778,2.0746,2.0732,2.0712,2.068,2.0656,2.0626,2.0598,2.0555,2.0523,2.0514,2.0498,2.0507,2.0507,2.0501,2.0459,2.0461,2.0521,2.0521,2.0521,2.0521,2.0521,2.0521,2.0938,2.0926,2.0901,2.0876,2.0848,2.0826,2.0809,2.0785,2.0759,2.0728,2.0705,2.0677,2.0639,2.0603,2.0576,2.0563,2.0553,2.0567,2.055,2.0511,2.0504,2.0497,2.0498,2.0566,2.0566,2.0592,2.0593,2.0593]}]]